Regional Weather Roundup
Issued by NWS Green Bay, WI

Home | Current Version | Previous Version | Graphics & Text | Print | Product List | Glossary Off
Versions: 1 2 3 4 5 6 7 8 9 10 11 12 13 14 15 16 17 18 19 20 21 22 23 24 25 26 27 28 29 30 31 32 33 34 35 36 37 38 39 40 41 42 43 44 45 46 47 48 49 50

000
ASUS43 KGRB 250811
RWRGRB

NORTH-CENTRAL AND NORTHEAST WISCONSIN REGIONAL WEATHER ROUNDUP
NATIONAL WEATHER SERVICE GREEN BAY WI
300 AM CDT THU MAY 25 2017

WIZ005-009-010>012-018-019-250900-
NORTH CENTRAL WISCONSIN

CITY           SKY/WX    TMP DP  RH WIND       PRES   REMARKS
IRONWOOD       PTCLDY    37  37 100 CALM      29.75S FOG
MANITOWISH WTR CLOUDY    46  46 100 E5        29.73F
ARBOR VITAE    CLOUDY    49  48  94 CALM      29.73S
EAGLE RIVER    CLOUDY    46  46  97 N3        29.73S
LAND O LAKES   CLOUDY    45  45 100 CALM      29.75F
RHINELANDER    CLOUDY    48  46  93 CALM      29.73S
PHILLIPS       CLOUDY    49  48  96 CALM      29.73R
ANTIGO         CLOUDY    47  47  98 N5        29.71R
TOMAHAWK         N/A     42  41  97 CALM      29.73S FOG
MERRILL        CLOUDY    48  48 100 CALM      29.72R
$$

WIZ013-073-250900-
NORTHEAST WISCONSIN

CITY           SKY/WX    TMP DP  RH WIND       PRES   REMARKS
IRON MOUNTAIN  CLOUDY    47  42  83 NW5       29.70S
MARINETTE      CLOUDY    52  47  83 N7        29.68S
OCONTO         MOCLDY    49  47  92 N6        29.66S
$$

WIZ017-030-035>037-045-250900-
CENTRAL WISCONSIN

CITY           SKY/WX    TMP DP  RH WIND       PRES   REMARKS
MEDFORD        CLEAR     46  45  97 NE3       29.71S
WAUSAU         PTCLDY    49  47  93 NW5       29.69S
MOSINEE        CLEAR     48  48 100 N7        29.71R
MARSHFIELD     CLEAR     46  44  93 N6        29.69S
WISC RAPIDS    PTCLDY    50  47  89 NE6       29.70S
STEVENS POINT  CLEAR     45  45 100 N5        29.69S
WAUPACA        CLEAR     50  48  94 NW5       29.68S
SHAWANO        CLOUDY    53  49  87 NE8       29.68S
CLINTONVILLE   CLEAR     50  46  87 N5        29.67S
WAUTOMA        CLOUDY    53  49  86 N7        29.67F
$$

WIZ038-039-048-051-250900-
FOX VALLEY

CITY           SKY/WX    TMP DP  RH WIND       PRES   REMARKS
NWS GREEN BAY  CLEAR     49  49 100 N7        29.65F
APPLETON       MOCLDY    50  48  93 N8        29.64S
OSHKOSH        CLOUDY    53  49  86 N10       29.64F
FOND DU LAC    CLOUDY    54  49  83 NE12      29.64S
$$

WIZ022-050-052-250900-
EAST CENTRAL WISCONSIN

CITY           SKY/WX    TMP DP  RH WIND       PRES   REMARKS
EPHRAIM        CLOUDY    47  47 100 N8        29.66S
WASHINGTON ISL CLOUDY    47  45  91 N9        29.67S
STURGEON BAY   CLOUDY    50  48  93 N6        29.66F
MANITOWOC      CLOUDY    54  49  83 NE12G18   29.63F
SHEBOYGAN      CLEAR     52  50  93 N16       29.61F
$$

LMZ563-521-522-541>543-250900-
LAKESHORE

STATION/POSITION TIME  TEMP    WIND        PRES    VSBY  WAVE
                       AIR SEA DIR/SP/G                  HT/PER
                 (UTC) (F)     (DEG/KT/KT) (MB)    (MI)  (FT/S)
SHEBOYGAN LKSHOR 0800   48      10/ 20/ 23 1002.7F
KEWAUNEE LKSHORE 0748   53      20/ 14/ 19 1003.4F
NORTHPORT PIER   0740   49      20/  9/ 12 1004.7F
N MID LAKE BUOY  0750   45 40   20/ 12/ 14 1005.1F         1/ 3
CHAMBERS ISLAND  0740   49      10/ 11/ 13 1004.4F
MENOMINEE LKSHOR 0748           10/ 12/ 14 1003.8F
$$




USA.gov is the U.S. government's official web portal to all federal, state and local government web resources and services.